Tracking 19562 objects as of 22-Mar-2019
HD Live streaming from Space Station
objects crossing your sky now

FENGYUN 1C DEB

Track FENGYUN 1C DEB now!
10-day predictions


NORAD ID: 31643
Int'l Code: 1999-025CAZ
Perigee: 833.2 km
Apogee: 984.4 km
Inclination: 98.3 °
Period: 103.0 minutes
Semi major axis: 7279 km
RCS: 0.0065 m2 (small)
Launch date: May 10, 1999
Source: People's Republic of China (PRC)
Launch site: Taiyaun Space Center, China (TSC)

Note: This is SATELLITE DEBRIS
aabbcc
Your satellite tracking list
Your tracking list is empty




NASA's NSSDC Master Catalog

Two Line Element Set (TLE):
1 31643U 99025CAZ 19069.79890226  .00000783  00000-0  55490-3 0  9994
2 31643  98.3435  66.5873 0103860  51.5168  70.7198 13.97733442603330
Source of the keplerian elements: AFSPC